TimeCDT,TemperatureF,Dew PointF,Humidity,Sea Level PressureIn,VisibilityMPH,Wind Direction,Wind SpeedMPH,Gust SpeedMPH,PrecipitationIn,Events,Conditions,WindDirDegrees,DateUTC
12:58 AM,42.6,25.9,52,30.20,10.0,SSE,13.8,-,N/A,,Partly Cloudy,160,2013-03-27 05:58:00
1:58 AM,41.4,25.2,53,30.19,10.0,South,15.0,-,N/A,,Partly Cloudy,170,2013-03-27 06:58:00
2:58 AM,41.9,24.1,49,30.17,10.0,SSE,16.1,-,N/A,,Scattered Clouds,160,2013-03-27 07:58:00
3:58 AM,41.9,24.3,50,30.15,10.0,SSE,12.7,-,N/A,,Partly Cloudy,160,2013-03-27 08:58:00
4:58 AM,42.3,25.0,50,30.15,10.0,SSE,9.2,-,N/A,,Partly Cloudy,160,2013-03-27 09:58:00
5:58 AM,42.4,25.2,50,30.15,10.0,South,16.1,-,N/A,,Mostly Cloudy,180,2013-03-27 10:58:00
6:58 AM,42.6,24.4,49,30.14,10.0,South,17.3,-,N/A,,Scattered Clouds,170,2013-03-27 11:58:00
7:58 AM,42.6,24.4,49,30.16,10.0,South,16.1,-,N/A,,Mostly Cloudy,170,2013-03-27 12:58:00
8:58 AM,45.3,25.3,46,30.16,10.0,South,23.0,28.8,N/A,,Overcast,180,2013-03-27 13:58:00
9:58 AM,48.4,28.0,45,30.15,10.0,South,19.6,27.6,N/A,,Mostly Cloudy,180,2013-03-27 14:58:00
10:58 AM,52.5,31.5,45,30.14,10.0,South,19.6,26.5,N/A,,Mostly Cloudy,180,2013-03-27 15:58:00
11:58 AM,60.4,34.9,38,30.13,10.0,SSW,19.6,33.4,N/A,,Clear,200,2013-03-27 16:58:00
12:58 PM,64.6,36.5,35,30.10,10.0,South,24.2,31.1,N/A,,Clear,180,2013-03-27 17:58:00
1:58 PM,67.1,37.0,33,30.06,10.0,South,20.7,31.1,N/A,,Clear,190,2013-03-27 18:58:00
2:58 PM,70.5,37.9,30,30.03,10.0,South,19.6,35.7,N/A,,Clear,190,2013-03-27 19:58:00
3:09 PM,71.6,37.4,29,30.02,10.0,SSW,18.4,31.1,N/A,,Clear,210,2013-03-27 20:09:00
3:58 PM,72.5,38.5,29,29.99,10.0,South,19.6,29.9,N/A,,Clear,190,2013-03-27 20:58:00
4:58 PM,73.2,37.8,28,29.99,10.0,South,19.6,28.8,N/A,,Clear,190,2013-03-27 21:58:00
5:58 PM,73.0,36.7,27,29.99,6.0,South,10.4,-,N/A,,Haze,190,2013-03-27 22:58:00
6:58 PM,71.1,37.6,29,29.99,10.0,South,15.0,20.7,N/A,,Clear,170,2013-03-27 23:58:00
7:58 PM,65.7,38.8,37,30.01,10.0,SSE,11.5,-,N/A,,Clear,160,2013-03-28 00:58:00
8:58 PM,62.1,39.0,43,30.02,10.0,SSE,10.4,-,N/A,,Clear,150,2013-03-28 01:58:00
9:58 PM,59.2,39.7,49,30.04,10.0,SSE,12.7,-,N/A,,Clear,160,2013-03-28 02:58:00
10:58 PM,56.7,40.6,55,30.06,10.0,SSE,11.5,-,N/A,,Clear,160,2013-03-28 03:58:00
11:58 PM,56.1,40.6,56,30.05,10.0,SE,11.5,-,N/A,,Clear,140,2013-03-28 04:58:00